Weather History for Cannes, France

Change the Weather History Date:

Thursday, March 21, 2013

  Actual Average Record
Temperature  
Mean Temperature 50 °F -  
Max Temperature 64 °F 59 °F 71 °F (2012)
Min Temperature 37 °F 48 °F 33 °F (2009)
Degree Days  
Heating Degree Days 14    
Moisture  
Dew Point 36 °F    
Average Humidity 63    
Maximum Humidity 93    
Minimum Humidity 33    
Precipitation  
Precipitation 0.00 in - - ()
Sea Level Pressure  
Sea Level Pressure 29.88 in    
Wind  
Wind Speed 4 mph ()    
Max Wind Speed 7 mph    
Max Gust Speed -    
Visibility 6.2 miles    
Events      
Averages and records for this station are not official NWS values.
T = Trace of Precipitation, MM = Missing Value Source: Averaged Metar Reports

Daily Weather History Graph

Daily Weather History Graph

Search for Another Location

Airport:

Trip Planner

Search our weather history database for the weather conditions in past years. The results will help you decide how hot, cold, wet, or windy it might be!

Date:

Astronomy

Mar. 21, 2013 Rise Set
Actual Time 6:33 AM CET 6:45 PM CET
Civil Twilight 6:05 AM CET 7:14 PM CET
Nautical Twilight 5:31 AM CET 7:47 PM CET
Astronomical Twilight 4:57 AM CET 8:22 PM CET
Moon 12:51 PM CET (3/21) 2:53 AM CET (3/21)
Length of Visible Light 13h 09m
Length of Day
12h 12m
Waxing Gibbous, 66% of the Moon is Illuminated
Mar 21
Waxing Gibbous
Mar 27
Full
Apr 3
Last Quarter
Apr 10
New
Apr 18
First Quarter

Hourly Weather History & Observations

Time (CET) Temp. Windchill Dew Point Humidity Pressure Visibility Wind Dir Wind Speed Gust Speed Precip Events Conditions
12:00 AM 41.0 °F 38.0 °F 39.2 °F 93% 29.83 in 5.6 mi North 4.6 mph - N/A   Unknown
12:30 AM 41.0 °F 36.4 °F 39.2 °F 93% 29.83 in 6.2 mi North 6.9 mph - N/A   Unknown
1:00 AM 41.0 °F 39.0 °F 39.2 °F 93% 29.83 in 6.2 mi Variable 3.5 mph - N/A   Unknown
1:30 AM 39.2 °F 37.0 °F 37.4 °F 93% 29.83 in 6.2 mi North 3.5 mph - N/A   Unknown
2:00 AM 39.2 °F 35.0 °F 35.6 °F 87% 29.83 in 6.2 mi NNE 5.8 mph - N/A   Unknown
2:30 AM 39.2 °F 37.0 °F 33.8 °F 81% 29.83 in 6.2 mi Variable 3.5 mph - N/A   Unknown
3:00 AM 41.0 °F - 33.8 °F 76% 29.83 in 6.2 mi Variable 1.2 mph - N/A   Unknown
3:30 AM 39.2 °F 35.9 °F 32.0 °F 75% 29.83 in 6.2 mi NNE 4.6 mph - N/A   Unknown
4:00 AM 39.2 °F - 32.0 °F 75% 29.83 in 6.2 mi Variable 1.2 mph - N/A   Unknown
4:30 AM 37.4 °F - 30.2 °F 75% 29.86 in 6.2 mi Variable 1.2 mph - N/A   Unknown
5:00 AM 37.4 °F - 32.0 °F 81% 29.86 in 6.2 mi Variable 2.3 mph - N/A   Unknown
5:30 AM 37.4 °F 33.8 °F 30.2 °F 75% 29.86 in 6.2 mi NE 4.6 mph - N/A   Unknown
6:00 AM 37.4 °F 34.9 °F 30.2 °F 75% 29.86 in 6.2 mi Variable 3.5 mph - N/A   Unknown
6:30 AM 37.4 °F 34.9 °F 30.2 °F 75% 29.89 in 6.2 mi Variable 3.5 mph - N/A   Unknown
7:00 AM 37.4 °F 33.8 °F 30.2 °F 75% 29.89 in 6.2 mi North 4.6 mph - N/A   Unknown
7:30 AM 39.2 °F 35.0 °F 30.2 °F 70% 29.89 in 6.2 mi NNE 5.8 mph - N/A   Unknown
8:00 AM 41.0 °F 38.0 °F 32.0 °F 70% 29.89 in 6.2 mi NNE 4.6 mph - N/A   Unknown
8:30 AM 46.4 °F 45.2 °F 33.8 °F 62% 29.92 in 6.2 mi North 3.5 mph - N/A   Unknown
9:00 AM 50.0 °F - 33.8 °F 54% 29.92 in 6.2 mi Variable 2.3 mph - N/A   Unknown
9:30 AM 53.6 °F - 33.8 °F 47% 29.92 in 6.2 mi Calm Calm - N/A   Unknown
10:00 AM 57.2 °F - 28.4 °F 33% 29.92 in 6.2 mi Variable 1.2 mph - N/A   Unknown
10:30 AM 55.4 °F - 33.8 °F 44% 29.92 in 6.2 mi South 5.8 mph - N/A   Unknown
11:00 AM 57.2 °F - 33.8 °F 41% 29.92 in 6.2 mi SSE 4.6 mph - N/A   Unknown
11:30 AM 57.2 °F - 33.8 °F 41% 29.92 in 6.2 mi SE 4.6 mph - N/A   Unknown
12:00 PM 59.0 °F - 30.2 °F 34% 29.92 in 6.2 mi South 4.6 mph - N/A   Unknown
12:30 PM 59.0 °F - 32.0 °F 36% 29.92 in 6.2 mi South 6.9 mph - N/A   Unknown
1:00 PM 59.0 °F - 32.0 °F 36% 29.92 in 6.2 mi SSE 6.9 mph - N/A   Unknown
1:30 PM 60.8 °F - 37.4 °F 42% 29.92 in 6.2 mi SSE 6.9 mph - N/A   Unknown
2:00 PM 60.8 °F - 35.6 °F 39% 29.89 in 6.2 mi SSE 5.8 mph - N/A   Unknown
2:30 PM 60.8 °F - 35.6 °F 39% 29.89 in 6.2 mi SSE 6.9 mph - N/A   Unknown
3:00 PM 60.8 °F - 35.6 °F 39% 29.89 in 6.2 mi SSE 6.9 mph - N/A   Unknown
3:30 PM 60.8 °F - 37.4 °F 42% 29.86 in 6.2 mi SSE 5.8 mph - N/A   Unknown
4:00 PM 60.8 °F - 39.2 °F 45% 29.86 in 6.2 mi SE 4.6 mph - N/A   Unknown
4:30 PM 60.8 °F - 41.0 °F 48% 29.86 in 6.2 mi ESE 3.5 mph - N/A   Unknown
5:00 PM 62.6 °F - 37.4 °F 39% 29.86 in 6.2 mi Variable 3.5 mph - N/A   Unknown
5:30 PM 64.4 °F - 35.6 °F 34% 29.86 in 6.2 mi Calm Calm - N/A   Unknown
6:00 PM 57.2 °F - 46.4 °F 67% 29.86 in 6.2 mi South 4.6 mph - N/A   Unknown
6:30 PM 55.4 °F - 44.6 °F 67% 29.86 in 6.2 mi South 4.6 mph - N/A   Unknown
7:00 PM 53.6 °F - 44.6 °F 72% 29.86 in 6.2 mi Variable 3.5 mph - N/A   Unknown
7:30 PM 51.8 °F - 39.2 °F 62% 29.86 in 6.2 mi Variable 3.5 mph - N/A   Unknown
8:00 PM 50.0 °F - 39.2 °F 66% 29.89 in 6.2 mi Variable 1.2 mph - N/A   Unknown
8:30 PM 48.2 °F - 39.2 °F 71% 29.89 in 6.2 mi North 3.5 mph - N/A   Unknown
9:00 PM 48.2 °F - 39.2 °F 71% 29.89 in 6.2 mi NNE 4.6 mph - N/A   Unknown
9:30 PM 46.4 °F 44.3 °F 39.2 °F 76% 29.89 in 6.2 mi NNE 4.6 mph - N/A   Unknown
10:00 PM 46.4 °F - 39.2 °F 76% 29.89 in 6.2 mi Variable 2.3 mph - N/A   Unknown
10:30 PM 44.6 °F - 37.4 °F 76% 29.89 in 6.2 mi Variable 2.3 mph - N/A   Unknown
11:00 PM 44.6 °F 43.1 °F 37.4 °F 76% 29.86 in 6.2 mi Variable 3.5 mph - N/A   Unknown
11:30 PM 42.8 °F 41.1 °F 37.4 °F 81% 29.86 in 6.2 mi North 3.5 mph - N/A   Unknown